Home > Time Zones > World Clock > Weather > India > Moga > Past weeks

Flag for India Weather past 2 weeks in Moga, Punjab, India

Now
90 °F

Scattered clouds.


Feels Like: 90 °F
Forecast: 67 / 84 °F
Wind: 2 mph from North

Location: Amritsar Airport

Current Time: Mar 28, 2015 at 2:54:02 PM

Latest Report: Mar 28, 2015 at 2:00 PM


Visibility: 2 mi

Pressure: 29.83 "Hg

Humidity: 41%

Dew point: 63 °F

Location of MogaLocation

Historic Weather in Moga — Graph

°F

Moga temperature yesterday

Maximum temperature yesterday: 88 °F (at 2:30 PM)
Minimum temperature yesterday: 57 °F (at 5:30 AM)
Average temperature yesterday: 73 °F

Past Weeks' High & Low Weather Summary

 TemperatureHumidityPressure
High90 °F (Mar 28, 1:30 PM)100% (Mar 14, 7:30 AM)30.15 "Hg (Mar 14, 7:30 AM)
Low52 °F (Mar 14, 7:30 AM)40% (Mar 28, 12:00 PM)29.80 "Hg (Mar 23, 5:00 PM)
Average68 °F79%29.97 "Hg
* Reported Mar 13 1:30 PM — Mar 28 1:30 PM, Moga, Weather by CustomWeather, © 2015

Note: Actual official high and low records may vary slightly from our data, if they occured in-between our weather recording intervals... More about our weather records

Advertising

Moga weather history for previous 24 hours

 ConditionsComfort  
Time TempWeatherWind HumidityBarometerVisibility
1:30 PM
Sat, Mar 28
90 °FScattered clouds.2 mph46%29.86 "Hg1 mi
1:00 PM88 °FScattered clouds.1 mph46%29.89 "Hg2 mi
12:00 PM86 °FScattered clouds.2 mph40%29.89 "Hg1 mi
11:30 AM84 °FScattered clouds.No wind55%29.89 "Hg1 mi
11:00 AM84 °FScattered clouds.No wind58%29.92 "Hg1 mi
8:30 AM73 °FFog.No wind78%29.89 "Hg1 mi
8:00 AM70 °FFog.No wind83%29.89 "Hg1 mi
7:30 AM64 °FFog.No wind94%29.86 "Hg1 mi
7:00 AM63 °FFog.No wind100%29.86 "Hg1 mi
4:00 AM64 °FFog.No wind94%29.86 "Hg1 mi
3:00 AM64 °FFog.No wind94%29.86 "Hg1 mi
2:30 AM66 °FFog.No wind88%29.89 "Hg1 mi
1:30 AM66 °FFog.No wind88%29.89 "Hg2 mi
10:30 PM
Fri, Mar 27
70 °FFog.No wind83%29.92 "Hg2 mi
10:00 PM70 °FFog.No wind83%29.92 "Hg2 mi
9:00 PM72 °FFog.No wind83%29.92 "Hg2 mi
8:30 PM73 °FFog.No wind78%29.92 "Hg2 mi
7:30 PM77 °FPassing clouds.No wind74%29.92 "Hg2 mi
7:00 PM79 °FScattered clouds.N/A74%29.89 "Hg2 mi
6:30 PM81 °FScattered clouds.3 mph70%29.89 "Hg2 mi
5:30 PM86 °FScattered clouds.3 mph49%29.89 "Hg2 mi
3:30 PM88 °FScattered clouds.12 mph52%29.95 "Hg2 mi
3:00 PM88 °FScattered clouds.7 mph52%29.95 "Hg2 mi
2:30 PM88 °FScattered clouds.9 mph49%29.95 "Hg2 mi
Weather by CustomWeather, © 2015

See weather overviewHow to use our weather pages